Time_in_sec,gx,gy,gz
1326902032.16462564,-0.00987058,0.02472271,-0.99964562
1326902032.22557998,-0.01014175,0.02469319,-0.99964363
1326902032.26556635,-0.01023592,0.02460077,-0.99964495
1326902032.31719947,-0.01011042,0.02476921,-0.99964207
1326902032.36552525,-0.01017755,0.02473879,-0.99964214
1326902032.41651392,-0.01018160,0.02470576,-0.99964292
1326902032.46565318,-0.01027797,0.02420527,-0.99965417
1326902032.51651716,-0.01018682,0.02437805,-0.99965091
1326902032.56452775,-0.01009669,0.02449339,-0.99964900
1326902032.61653185,-0.01004551,0.02479762,-0.99964202
1326902032.66455078,-0.01001085,0.02462048,-0.99964675
1326902032.71750474,-0.01049906,0.02473265,-0.99963897
1326902032.76454329,-0.01035009,0.02506016,-0.99963236
1326902032.81756139,-0.01040593,0.02498062,-0.99963378
1326902032.86555934,-0.01035242,0.02500445,-0.99963374
1326902032.91664696,-0.01049063,0.02534082,-0.99962382
1326902032.96630502,-0.01054093,0.02507007,-0.99963012
1326902033.01748896,-0.01062673,0.02497570,-0.99963158
1326902033.06527662,-0.01058564,0.02517626,-0.99962698
1326902033.11751008,-0.01034390,0.02540611,-0.99962370
1326902033.16862583,-0.01021641,0.02546003,-0.99962364
1326902033.21755028,-0.01033424,0.02514562,-0.99963038
1326902033.26550531,-0.01026437,0.02534076,-0.99962617
1326902033.31724405,-0.01024295,0.02531591,-0.99962702
1326902033.36855245,-0.01027641,0.02546536,-0.99962288
1326902033.41769528,-0.01045353,0.02557878,-0.99961815
1326902033.46965313,-0.01052039,0.02529798,-0.99962460
1326902033.51750493,-0.01053243,0.02515577,-0.99962806
1326902033.56553650,-0.01072365,0.02508584,-0.99962778
1326902033.61652589,-0.01070438,0.02512882,-0.99962691
1326902033.66558719,-0.01080662,0.02516330,-0.99962494
1326902033.71762419,-0.01085578,0.02477176,-0.99963419
1326902033.76854134,-0.01050583,0.02497516,-0.99963287
1326902033.81682730,-0.01053729,0.02501507,-0.99963154
1326902033.86898589,-0.01078021,0.02522850,-0.99962358
1326902033.91752934,-0.01061420,0.02536064,-0.99962202
1326902033.96852660,-0.01057806,0.02515230,-0.99962766
1326902034.01699853,-0.01073624,0.02492906,-0.99963157
1326902034.06551194,-0.01058053,0.02518200,-0.99962689
1326902034.11678219,-0.01042650,0.02512411,-0.99962997
1326902034.16957116,-0.01054044,0.02510892,-0.99962915
1326902034.21675515,-0.01092939,0.02495055,-0.99962894
1326902034.26954460,-0.01084298,0.02506412,-0.99962704
1326902034.31752634,-0.01087144,0.02499922,-0.99962836
1326902034.36554527,-0.01083548,0.02516880,-0.99962449
1326902034.41686296,-0.01096624,0.02513312,-0.99962396
1326902034.46552205,-0.01129645,0.02503154,-0.99962284
1326902034.51662397,-0.01134512,0.02517233,-0.99961875
1326902034.56473565,-0.01156129,0.02534628,-0.99961188
1326902034.61653996,-0.01178065,0.02548801,-0.99960571
1326902034.66551471,-0.01196792,0.02546812,-0.99960399
1326902034.71750665,-0.01224037,0.02556845,-0.99959813
1326902034.76958227,-0.01203844,0.02572040,-0.99959669
1326902034.81663060,-0.01224895,0.02572978,-0.99959389
1326902034.86551094,-0.01251879,0.02573509,-0.99959041
1326902034.91656280,-0.01242480,0.02577003,-0.99959068
1326902034.96465182,-0.01239377,0.02520380,-0.99960550
1326902035.01658440,-0.01259324,0.02529092,-0.99960081
1326902035.06458426,-0.01276518,0.02533441,-0.99959753
1326902035.11751008,-0.01279793,0.02525934,-0.99959901
1326902035.16544986,-0.01273251,0.02518845,-0.99960163
1326902035.21704412,-0.01297301,0.02501045,-0.99960301
1326902035.26552224,-0.01282096,0.02495068,-0.99960647
1326902035.31671071,-0.01272002,0.02490802,-0.99960882
1326902035.36455321,-0.01255595,0.02506515,-0.99960697
1326902035.41681457,-0.01249365,0.02533078,-0.99960105
1326902035.46455169,-0.01270070,0.02508646,-0.99960460
1326902035.51751685,-0.01270263,0.02494931,-0.99960801
1326902035.56451035,-0.01264304,0.02515162,-0.99960370
1326902035.61733198,-0.01278800,0.02545934,-0.99959406
1326902035.66635060,-0.01270069,0.02572429,-0.99958839
1326902035.71752477,-0.01296921,0.02533535,-0.99959488
1326902035.76554680,-0.01307527,0.02530496,-0.99959427
1326902035.81752205,-0.01306829,0.02519857,-0.99959704
1326902035.86958647,-0.01287260,0.02529775,-0.99959708
1326902035.91750598,-0.01286701,0.02537747,-0.99959513
1326902035.96519303,-0.01304453,0.02520177,-0.99959727
1326902036.01665211,-0.01302278,0.02505107,-0.99960135
1326902036.06918240,-0.01284903,0.02506952,-0.99960313
1326902036.11663079,-0.01299614,0.02524257,-0.99959688
1326902036.16984344,-0.01279426,0.02523595,-0.99959965
1326902036.21751571,-0.01260696,0.02463677,-0.99961697
1326902036.26964259,-0.01249768,0.02468021,-0.99961727
1326902036.31750655,-0.01238552,0.02496197,-0.99961167
1326902036.36864042,-0.01201748,0.02505033,-0.99961396
1326902036.41777897,-0.01175936,0.02495667,-0.99961937
1326902036.46556091,-0.01163987,0.02453346,-0.99963124
1326902036.51661849,-0.01141958,0.02460366,-0.99963206
1326902036.56558967,-0.01144199,0.02458666,-0.99963222
1326902036.61760187,-0.01146661,0.02461076,-0.99963135
1326902036.66891885,-0.01143780,0.02475266,-0.99962817
1326902036.71752548,-0.01110620,0.02446397,-0.99963902
1326902036.76552296,-0.01111567,0.02449701,-0.99963810
1326902036.81678343,-0.01112088,0.02463854,-0.99963457
1326902036.86891246,-0.01118160,0.02464000,-0.99963385
1326902036.91658163,-0.01112936,0.02461389,-0.99963508
1326902036.96863937,-0.01109475,0.02464212,-0.99963477
1326902037.01654983,-0.01140937,0.02469827,-0.99962984
1326902037.06603336,-0.01161044,0.02469718,-0.99962755
1326902037.11750054,-0.01181719,0.02484987,-0.99962135
1326902037.16554141,-0.01183428,0.02495712,-0.99961847
1326902037.21656704,-0.01168330,0.02461345,-0.99962877
1326902037.26550245,-0.01164991,0.02452555,-0.99963132
1326902037.31760859,-0.01167404,0.02447554,-0.99963226
1326902037.36567116,-0.01160499,0.02458262,-0.99963044
1326902037.41752076,-0.01163059,0.02457826,-0.99963025
1326902037.46563697,-0.01195319,0.02433094,-0.99963250
1326902037.51750612,-0.01208544,0.02436021,-0.99963019
1326902037.56549406,-0.01204872,0.02415812,-0.99963554
1326902037.61663651,-0.01212943,0.02414490,-0.99963488
1326902037.66553903,-0.01216487,0.02431911,-0.99963023
1326902037.71664476,-0.01223598,0.02371051,-0.99964398
1326902037.76466465,-0.01253132,0.02359993,-0.99964294
1326902037.81666327,-0.01246942,0.02384223,-0.99963797
1326902037.86460209,-0.01242323,0.02384402,-0.99963850
1326902037.91751885,-0.01242247,0.02401581,-0.99963439
1326902037.96452355,-0.01183486,0.02393265,-0.99964352
1326902038.01658511,-0.01154125,0.02417364,-0.99964115
1326902038.06550312,-0.01143904,0.02451691,-0.99963397
1326902038.11709285,-0.01136864,0.02444840,-0.99963645
1326902038.16458917,-0.01139741,0.02436898,-0.99963806
1326902038.21652484,-0.01157254,0.02415176,-0.99964132
1326902038.26459765,-0.01157003,0.02421709,-0.99963977
1326902038.31750560,-0.01153558,0.02424011,-0.99963961
1326902038.36537838,-0.01151115,0.02453250,-0.99963276
1326902038.41662979,-0.01175543,0.02475370,-0.99962446
1326902038.46633792,-0.01180441,0.02435445,-0.99963369
1326902038.51757026,-0.01174294,0.02453088,-0.99963010
1326902038.56547642,-0.01174072,0.02446995,-0.99963162
1326902038.61753893,-0.01185834,0.02445716,-0.99963055
1326902038.66451454,-0.01172226,0.02449245,-0.99963129
1326902038.71761155,-0.01212386,0.02439128,-0.99962897
1326902038.76520634,-0.01193899,0.02419866,-0.99963588
1326902038.81650448,-0.01193890,0.02423816,-0.99963492
1326902038.86550403,-0.01196459,0.02431262,-0.99963281
1326902038.91650939,-0.01203909,0.02446308,-0.99962824
1326902038.96951413,-0.01211553,0.02415402,-0.99963483
1326902039.01711726,-0.01218380,0.02412428,-0.99963472
1326902039.06555510,-0.01218157,0.02435043,-0.99962926
1326902039.11754990,-0.01206664,0.02447000,-0.99962774
1326902039.16965365,-0.01203861,0.02437507,-0.99963040
1326902039.21653581,-0.01213724,0.02410951,-0.99963564
1326902039.26552296,-0.01238129,0.02427127,-0.99962874
1326902039.31691551,-0.01237698,0.02422245,-0.99962997
1326902039.36566281,-0.01244706,0.02427775,-0.99962776
1326902039.41690898,-0.01235014,0.02445758,-0.99962458
1326902039.46964574,-0.01223373,0.02431770,-0.99962942
1326902039.51750708,-0.01221033,0.02414308,-0.99963394
1326902039.56504536,-0.01234734,0.02429556,-0.99962857
1326902039.61653280,-0.01216561,0.02432484,-0.99963008
1326902039.66551018,-0.01215015,0.02446932,-0.99962674
1326902039.71753550,-0.01202620,0.02410865,-0.99963701
1326902039.76966381,-0.01199969,0.02415843,-0.99963612
1326902039.81657577,-0.01204554,0.02413695,-0.99963609
1326902039.86852765,-0.01185122,0.02445362,-0.99963072
1326902039.91750836,-0.01185482,0.02479616,-0.99962224
1326902039.96553111,-0.01155779,0.02426938,-0.99963864
1326902040.01753759,-0.01162044,0.02470652,-0.99962721
1326902040.06950903,-0.01171625,0.02482474,-0.99962316
1326902040.11686373,-0.01182430,0.02500392,-0.99961742
1326902040.16955614,-0.01177989,0.02494442,-0.99961943
1326902040.22490144,-0.01184052,0.02428633,-0.99963492
1326902040.26490068,-0.01162897,0.02413284,-0.99964112
1326902040.31751728,-0.01178094,0.02407734,-0.99964068
1326902040.36954999,-0.01187951,0.02432356,-0.99963355
1326902040.41675067,-0.01161733,0.02442744,-0.99963410
1326902040.46587777,-0.01135126,0.02378380,-0.99965268
1326902040.51749158,-0.01139813,0.02391254,-0.99964908
1326902040.56598663,-0.01150483,0.02395381,-0.99964686
1326902040.61755776,-0.01150029,0.02426527,-0.99963941
1326902040.66467404,-0.01146102,0.02425896,-0.99964001
1326902040.71751714,-0.01154274,0.02351661,-0.99965681
1326902040.76466441,-0.01153888,0.02353357,-0.99965645
1326902040.81655049,-0.01151798,0.02359986,-0.99965513
1326902040.86550307,-0.01130138,0.02373439,-0.99965442
1326902040.91790533,-0.01139316,0.02374423,-0.99965314
1326902040.96563935,-0.01107738,0.02331386,-0.99966682
1326902041.01650643,-0.01113813,0.02319679,-0.99966887
1326902041.06655788,-0.01107645,0.02312831,-0.99967114
1326902041.11751342,-0.01125117,0.02322335,-0.99966699
1326902041.16461873,-0.01113253,0.02310696,-0.99967101
1326902041.21660829,-0.01138844,0.02289711,-0.99967296
1326902041.26553345,-0.01136323,0.02301124,-0.99967063
1326902041.31516004,-0.01152073,0.02315578,-0.99966549
1326902041.36463404,-0.01162126,0.02344622,-0.99965755
1326902041.41705275,-0.01174456,0.02359948,-0.99965250
1326902041.46449566,-0.01165089,0.02341190,-0.99965801
1326902041.51751781,-0.01160350,0.02359216,-0.99965432
1326902041.56536484,-0.01155322,0.02388044,-0.99964806
1326902041.61654925,-0.01152968,0.02412110,-0.99964256
1326902041.66560078,-0.01149200,0.02413585,-0.99964263
1326902041.71637392,-0.01138902,0.02412962,-0.99964396
1326902041.76957059,-0.01151198,0.02407036,-0.99964398
1326902041.81656790,-0.01169533,0.02417246,-0.99963939
1326902041.86935830,-0.01163987,0.02429237,-0.99963713
1326902041.91750669,-0.01181940,0.02437032,-0.99963313
1326902041.96564221,-0.01196391,0.02393797,-0.99964186
1326902042.01754332,-0.01193232,0.02382681,-0.99964489
1326902042.06547523,-0.01202910,0.02399313,-0.99963975
1326902042.11664391,-0.01184836,0.02424277,-0.99963589
1326902042.16921854,-0.01169830,0.02414347,-0.99964006
1326902042.21752357,-0.01110155,0.02332342,-0.99966633
1326902042.26920843,-0.01105165,0.02337154,-0.99966576
1326902042.31761956,-0.01124396,0.02340937,-0.99966273
1326902042.36507082,-0.01141011,0.02337996,-0.99966154
1326902042.41787553,-0.01135604,0.02342771,-0.99966103
1326902042.46551728,-0.01105141,0.02319677,-0.99966983
1326902042.51755738,-0.01076008,0.02333941,-0.99966969
1326902042.56555820,-0.01067870,0.02345795,-0.99966779
1326902042.61656260,-0.01076394,0.02345552,-0.99966693
1326902042.66566324,-0.01093750,0.02344667,-0.99966526
1326902042.71751857,-0.01077183,0.02337571,-0.99966872
1326902042.76897836,-0.01061463,0.02356330,-0.99966599
1326902042.81724668,-0.01068651,0.02352059,-0.99966623
1326902042.86557007,-0.01063562,0.02363297,-0.99966413
1326902042.91755486,-0.01060831,0.02378142,-0.99966090
1326902042.96964908,-0.01033384,0.02327637,-0.99967566
1326902043.01684570,-0.01033103,0.02335252,-0.99967391
1326902043.06565166,-0.01026205,0.02347026,-0.99967186
1326902043.11750531,-0.01011674,0.02344504,-0.99967394
1326902043.16565394,-0.01017222,0.02345623,-0.99967311
1326902043.21755219,-0.01032139,0.02321950,-0.99967711
1326902043.26569343,-0.01044597,0.02298176,-0.99968131
1326902043.31751895,-0.01067766,0.02312459,-0.99967557
1326902043.36558962,-0.01075575,0.02293828,-0.99967902
1326902043.42553973,-0.01082645,0.02293529,-0.99967833
1326902043.46565795,-0.01076046,0.02298585,-0.99967788
1326902043.51750422,-0.01075114,0.02295075,-0.99967879
1326902043.56554246,-0.01066702,0.02280116,-0.99968311
1326902043.61679649,-0.01074180,0.02294081,-0.99967911
1326902043.66550994,-0.01073281,0.02290613,-0.99968001
1326902043.71616268,-0.01009423,0.02258394,-0.99969399
1326902043.76645827,-0.00981183,0.02260349,-0.99969636
1326902043.81653476,-0.01001234,0.02277199,-0.99969055
1326902043.86554337,-0.00997224,0.02276486,-0.99969111
1326902043.91751409,-0.01000328,0.02317938,-0.99968127
1326902043.96528530,-0.00981848,0.02316756,-0.99968338
1326902044.01652765,-0.00974285,0.02324273,-0.99968238
1326902044.06554341,-0.00974198,0.02335968,-0.99967966
1326902044.11704302,-0.00989707,0.02334032,-0.99967859
1326902044.16626334,-0.00985945,0.02331773,-0.99967949
1326902044.21653724,-0.00906000,0.02333124,-0.99968674
1326902044.26651955,-0.00912520,0.02357969,-0.99968031
1326902044.31749320,-0.00933093,0.02367544,-0.99967615
1326902044.36536407,-0.00937879,0.02392924,-0.99966966
1326902044.41654229,-0.00929763,0.02381418,-0.99967317
1326902044.46549201,-0.00871333,0.02362480,-0.99968292
1326902044.51991868,-0.00871500,0.02384539,-0.99967767
1326902044.56557035,-0.00880202,0.02385761,-0.99967662
1326902044.61726570,-0.00861359,0.02384849,-0.99967848
1326902044.66554689,-0.00844406,0.02389897,-0.99967872
1326902044.71750426,-0.00816215,0.02356219,-0.99968905
1326902044.76929617,-0.00833716,0.02372324,-0.99968380
1326902044.81728864,-0.00837227,0.02394618,-0.99967819
1326902044.86497664,-0.00820631,0.02375402,-0.99968415
1326902044.91950989,-0.00825346,0.02400278,-0.99967782
1326902044.96554422,-0.00783172,0.02350866,-0.99969296
1326902045.01715398,-0.00773271,0.02367414,-0.99968982
1326902045.06593370,-0.00770681,0.02364687,-0.99969067
1326902045.11750197,-0.00765206,0.02350923,-0.99969433
1326902045.16553307,-0.00774739,0.02376356,-0.99968759
1326902045.21764159,-0.00781308,0.02368909,-0.99968884
1326902045.26557255,-0.00782560,0.02359334,-0.99969101
1326902045.31750870,-0.00764080,0.02349440,-0.99969477
1326902045.36532593,-0.00740462,0.02351831,-0.99969598
1326902045.41702604,-0.00742039,0.02354440,-0.99969525
1326902045.46565056,-0.00767451,0.02332094,-0.99969857
1326902045.51749730,-0.00763135,0.02358390,-0.99969273
1326902045.56964207,-0.00742649,0.02365077,-0.99969270
1326902045.61715436,-0.00714180,0.02360585,-0.99969583
1326902045.66496897,-0.00734079,0.02368078,-0.99969262
1326902045.71654034,-0.00688884,0.02300079,-0.99971171
1326902045.76565242,-0.00684144,0.02310400,-0.99970966
1326902045.81670380,-0.00696187,0.02327104,-0.99970495
1326902045.86566448,-0.00687625,0.02331763,-0.99970446
1326902045.91751099,-0.00685968,0.02327175,-0.99970564
1326902045.96953845,-0.00660124,0.02317096,-0.99970972
1326902046.01695704,-0.00659424,0.02307370,-0.99971202
1326902046.06884456,-0.00635460,0.02301519,-0.99971492
1326902046.11663723,-0.00647998,0.02333749,-0.99970664
1326902046.16568065,-0.00640487,0.02323792,-0.99970945
1326902046.21677089,-0.00572563,0.02314007,-0.99971584
1326902046.26557183,-0.00549877,0.02321002,-0.99971549
1326902046.31751680,-0.00541193,0.02345376,-0.99971027
1326902046.36469913,-0.00540489,0.02365546,-0.99970556
1326902046.41665983,-0.00561451,0.02377916,-0.99970147
1326902046.46550012,-0.00527761,0.02375337,-0.99970392
1326902046.51654077,-0.00552254,0.02372733,-0.99970321
1326902046.56566882,-0.00546184,0.02369534,-0.99970431
1326902046.61654878,-0.00543777,0.02364770,-0.99970557
1326902046.66463900,-0.00545676,0.02377556,-0.99970243
1326902046.71754098,-0.00522341,0.02392465,-0.99970012
1326902046.77657604,-0.00535260,0.02405373,-0.99969634
1326902046.81757188,-0.00531498,0.02421913,-0.99969255
1326902046.86549163,-0.00537034,0.02446063,-0.99968637
1326902046.91757774,-0.00505925,0.02440767,-0.99968929
1326902046.96463633,-0.00463623,0.02425736,-0.99969500
1326902047.02054834,-0.00463994,0.02423494,-0.99969552
1326902047.06463933,-0.00472159,0.02416717,-0.99969678
1326902047.11749196,-0.00456127,0.02422166,-0.99969621
1326902047.16542673,-0.00465025,0.02443576,-0.99969059
1326902047.21656132,-0.00469666,0.02411601,-0.99969813
1326902047.26561975,-0.00486847,0.02422096,-0.99969477
1326902047.31652689,-0.00503643,0.02417773,-0.99969499
1326902047.36543202,-0.00496977,0.02406933,-0.99969794
1326902047.41652465,-0.00496847,0.02412561,-0.99969659
1326902047.46604609,-0.00492547,0.02415634,-0.99969606
1326902047.51752019,-0.00484587,0.02409081,-0.99969803
1326902047.56553245,-0.00484392,0.02416505,-0.99969625
1326902047.61663198,-0.00490395,0.02413866,-0.99969659
1326902047.66552019,-0.00484948,0.02408741,-0.99969809
1326902047.71663761,-0.00459335,0.02435484,-0.99969282
1326902047.76629233,-0.00465064,0.02457929,-0.99968707
1326902047.81654572,-0.00465717,0.02446413,-0.99968986
1326902047.86862397,-0.00450184,0.02432673,-0.99969393
1326902047.91750669,-0.00431605,0.02424605,-0.99969670
1326902047.96555948,-0.00401905,0.02365205,-0.99971217
1326902048.01663733,-0.00437948,0.02373180,-0.99970877
1326902048.06922507,-0.00429770,0.02377052,-0.99970820
1326902048.11751866,-0.00420185,0.02394945,-0.99970434
1326902048.16570449,-0.00413266,0.02390520,-0.99970569
1326902048.22515202,-0.00371469,0.02328060,-0.99972207
1326902048.26913524,-0.00382549,0.02348048,-0.99971698
1326902048.31751347,-0.00384996,0.02347769,-0.99971695
1326902048.36565566,-0.00385380,0.02383201,-0.99970855
1326902048.42064285,-0.00391087,0.02364254,-0.99971283
1326902048.46550775,-0.00322509,0.02361949,-0.99971582
1326902048.51662135,-0.00329614,0.02360901,-0.99971583
1326902048.56511879,-0.00334112,0.02377555,-0.99971174
1326902048.61700892,-0.00360303,0.02386375,-0.99970873
1326902048.66899872,-0.00358651,0.02389450,-0.99970805
1326902048.71751404,-0.00296880,0.02325257,-0.99972521
1326902048.76486540,-0.00319527,0.02324035,-0.99972480
1326902048.81754541,-0.00319278,0.02322422,-0.99972518
1326902048.86488128,-0.00295299,0.02324880,-0.99972535
1326902048.91655207,-0.00292888,0.02323929,-0.99972564
1326902048.96549821,-0.00269191,0.02309876,-0.99972956
1326902049.01763463,-0.00271543,0.02327525,-0.99972541
1326902049.06875634,-0.00269105,0.02328696,-0.99972520
1326902049.11750627,-0.00290741,0.02333926,-0.99972337
1326902049.16552281,-0.00306313,0.02347304,-0.99971978
1326902049.21756172,-0.00273084,0.02298572,-0.99973206
1326902049.26550961,-0.00290314,0.02307210,-0.99972959
1326902049.32488608,-0.00281338,0.02323814,-0.99972600
1326902049.36557961,-0.00283203,0.02328993,-0.99972474
1326902049.41659856,-0.00282603,0.02333445,-0.99972372
1326902049.46465087,-0.00245063,0.02285998,-0.99973567
1326902049.51750517,-0.00244082,0.02281099,-0.99973682
1326902049.56456041,-0.00232331,0.02280890,-0.99973714
1326902049.61755490,-0.00242581,0.02289139,-0.99973501
1326902049.66951776,-0.00222645,0.02286254,-0.99973614
1326902049.71757817,-0.00255908,0.02262058,-0.99974085
1326902049.76556420,-0.00270443,0.02261688,-0.99974055
1326902049.81754446,-0.00284195,0.02276741,-0.99973675
1326902049.86457920,-0.00282204,0.02276728,-0.99973681
1326902049.91751742,-0.00289025,0.02275271,-0.99973695
1326902049.96451235,-0.00282289,0.02232274,-0.99974683
1326902050.01875043,-0.00290920,0.02226779,-0.99974781
